CDT,Max TemperatureF,Mean TemperatureF,Min TemperatureF,Max Dew PointF,MeanDew PointF,Min DewpointF,Max Humidity, Mean Humidity, Min Humidity, Max Sea Level PressureIn, Mean Sea Level PressureIn, Min Sea Level PressureIn, Max VisibilityMiles, Mean VisibilityMiles, Min VisibilityMiles, Max Wind SpeedMPH, Mean Wind SpeedMPH, Max Gust SpeedMPH,PrecipitationIn, CloudCover, Events, WindDirDegrees
2013-9-1,84,72,62,72,63,56,99,71,39,30.04,29.95,29.78,10,10,10,17,6,29,0.00,1,Rain-Thunderstorm,328
2013-9-2,79,67,55,60,56,46,100,72,31,30.13,30.07,30.04,10,10,5,8,2,,0.00,0,,2
2013-9-3,86,69,52,64,59,51,99,70,44,30.11,30.06,30.02,10,10,10,10,3,,0.00,0,,162
2013-9-4,88,78,68,66,62,60,79,64,38,30.16,30.11,30.04,10,10,10,12,6,,0.00,1,Rain,156
2013-9-5,88,78,68,69,64,60,95,66,38,30.20,30.15,30.10,10,10,10,13,7,20,0.00,3,Rain-Thunderstorm,132
2013-9-6,94,80,67,70,66,61,83,63,40,30.11,30.01,29.90,10,10,10,17,9,22,0.00,0,,152
2013-9-7,87,78,69,73,69,66,99,74,53,29.94,29.91,29.88,10,10,5,16,6,21,0.00,0,Thunderstorm,160
2013-9-8,93,80,67,74,71,67,100,77,48,29.94,29.88,29.80,10,8,2,13,3,18,0.00,0,,111
2013-9-9,99,88,76,72,63,56,85,49,24,29.86,29.81,29.78,10,10,10,17,9,29,0.00,0,,185
2013-9-10,93,80,66,70,64,59,85,58,38,30.07,29.95,29.86,10,10,10,12,6,18,0.00,1,Thunderstorm,255
2013-9-11,86,77,68,72,67,62,100,77,45,30.14,30.11,30.06,10,9,0,10,3,,0.00,4,Fog-Rain-Thunderstorm,15
2013-9-12,80,68,57,68,55,48,100,64,34,30.26,30.20,30.14,10,10,5,12,4,18,0.00,0,,9
2013-9-13,77,62,48,52,50,48,97,66,37,30.25,30.18,30.08,10,9,2,9,2,,0.00,0,,107
2013-9-14,78,66,55,58,53,50,88,62,42,30.09,29.99,29.87,10,10,2,17,7,22,0.00,2,Rain,154
2013-9-15,70,66,61,66,58,54,96,77,64,30.27,30.05,29.86,10,10,7,20,9,22,0.00,6,Rain-Thunderstorm,9
2013-9-16,71,63,56,58,54,53,97,76,53,30.33,30.27,30.20,10,10,7,14,7,18,0.00,6,Rain,83
2013-9-17,71,64,57,69,63,58,100,97,90,30.20,30.03,29.88,10,8,1,17,7,22,0.00,7,Rain-Thunderstorm,131
2013-9-18,91,79,67,70,68,66,99,74,47,29.87,29.77,29.69,10,9,5,21,12,28,0.04,1,,158
2013-9-19,79,68,56,69,61,49,98,73,48,30.04,29.84,29.72,10,10,5,28,11,39,0.19,2,Rain-Thunderstorm,268
2013-9-20,72,58,45,54,47,42,100,71,36,30.10,30.04,29.99,10,10,10,24,8,29,0.00,0,,297
2013-9-21,79,60,42,55,49,42,100,68,38,30.03,29.96,29.86,10,10,10,13,4,18,0.00,0,,143
2013-9-22,83,69,55,55,52,48,94,59,29,29.89,29.84,29.78,10,10,10,20,10,28,0.00,0,,148
2013-9-23,79,68,56,53,51,50,83,57,37,29.84,29.78,29.72,10,10,10,22,13,34,0.00,1,Thunderstorm,133
2013-9-24,72,63,54,59,57,52,99,76,58,29.93,29.85,29.72,10,10,10,15,8,23,0.00,5,Rain,15
2013-9-25,81,64,48,61,56,48,100,75,43,29.92,29.85,29.74,10,8,0,18,5,26,0.00,0,Fog,136
2013-9-26,90,76,63,61,59,56,90,61,33,29.80,29.76,29.71,10,10,10,26,17,38,0.00,0,,137
2013-9-27,90,80,69,62,59,57,75,53,36,29.81,29.78,29.73,10,10,10,28,18,36,0.00,0,Rain-Thunderstorm,149
2013-9-28,75,63,48,63,51,41,100,69,37,30.06,29.90,29.69,10,10,2,22,14,30,0.24,3,Rain-Thunderstorm,283
2013-9-29,79,63,47,49,45,42,99,54,29,30.06,29.97,29.87,10,10,10,18,6,25,0.00,0,,183
2013-9-30,83,68,54,54,50,46,80,55,31,29.87,29.77,29.69,10,10,10,17,11,23,0.00,0,,173